Regional Weather Roundup
Issued by NWS

Home | Current Version | Previous Version | Graphics & Text | Print | Product List | Glossary On
Versions: 1 2 3 4 5 6 7 8 9 10 11 12 13 14 15 16 17 18 19 20 21 22 23 24 25 26 27 28 29 30 31 32 33 34 35 36 37 38 39 40 41 42 43 44 45 46 47 48 49 50
000
ASUS45 KBOI 270110
RWRID
WEATHER ROUNDUP FOR IDAHO
NATIONAL WEATHER SERVICE BOISE ID
700 PM MDT THU MAR 26 2015

NOTE: "FAIR" INDICATES FEW OR NO CLOUDS BELOW 12000 FEET
WITH NO SIGNIFICANT WEATHER AND/OR OBSTRUCTIONS TO VISIBILITY

IDZ012-014-270200-
SOUTHWEST IDAHO


CITY           SKY/WX    TMP DP  RH WIND       PRES   REMARKS
BOISE          SUNNY     64  37  36 NW7       30.26F
CALDWELL       SUNNY     64  39  39 NW3       30.28F
$$

IDZ016-017-270200-
SOUTHCENTRAL IDAHO


CITY           SKY/WX    TMP DP  RH WIND       PRES   REMARKS
BURLEY         CLEAR     59  35  40 W7        30.28S
JEROME         PTCLDY    60  33  36 SW15      30.29F
TWIN FALLS     CLEAR     61  35  37 W9        30.29F
$$

IDZ019>023-270200-
SOUTHEAST IDAHO


CITY           SKY/WX    TMP DP  RH WIND       PRES   REMARKS
IDAHO FALLS    PTCLDY    58  32  37 SW14      30.30S
POCATELLO      CLEAR     59  32  36 SW12      30.31S
REXBURG        CLOUDY    56  32  40 S9        30.29S
$$

IDZ006-010-011-018-031-032-270200-
CENTRAL IDAHO MOUNTAINS


CITY           SKY/WX    TMP DP  RH WIND       PRES   REMARKS
MCCALL         SUNNY     57  39  51 NW6       30.30F
HAILEY         PTCLDY    57  39  51 SE10      30.30F
STANLEY          N/A     56  33  42 W5        30.35S
SALMON         PTCLDY    61  36  39 N6        30.27F
CHALLIS        CLEAR     62  34  35 NE9       30.27S
$$

IDZ002-004-006-007-026-270200-
NORTHERN IDAHO


CITY           SKY/WX    TMP DP  RH WIND       PRES   REMARKS
LEWISTON       SUNNY     68  46  45 NE8       30.20F
LOWELL           N/A     56  49  77 N3        30.25S
COEUR D`ALENE  PTSUNNY   61  45  55 W3        30.25S
MULLAN PASS    PTCLDY    42  38  85 SW6       30.31S
$$



USA.gov is the U.S. government's official web portal to all federal, state and local government web resources and services.